Starlink 32092

operational
NORAD ID: 59700 Int'l Des: 2024-086 Owner: SPXS Country: US Constellation: starlink
LEOCIRCULAR

About Starlink 32092

Description loading...

Live Position

Loading 3D Globe...

Upcoming Passes

Altitude History

Altitude vs Time

uPlot chart will show altitude changes over time

Two-Line Element Set

1 59700U 24086U 26033.98709821 .00000541 00000-0 29186-4 0 9999
2 59700 42.9999 255.9790 0000969 275.1505 84.9236 15.27581233 98805
Epoch: Feb 2, 2026 • Age: 33 hours

Current Status

Altitude 488.9 km
Velocity 7.62 km/s
Sub-Earth Point -25.65°S, 44.18°W
Launch Date May 8, 2024
Age 1.7 years
Type internet

Technical Details

Classification Payload
Mass 730.00 kg
Dry Mass 700.00 kg
Total Mass 730.00 kg
Length 0.30 m
Diameter 4.10 m
Span 29.00 m
Shape Box + pan
Manufacturer SPXS
Bus Type Starlink V2M
Phase Status In Orbit
Owner/State SPXS/US

Large Constellations

Loading constellations...